Weather Roundup
Issued by NWS

Home | Current Version | Previous Version | Graphics & Text | Print | Product List | Glossary Off
Versions: 1 2 3 4 5 6 7 8 9 10 11 12 13 14 15 16 17 18 19 20 21 22 23 24 25 26 27 28 29 30 31 32 33 34 35 36 37 38 39 40 41 42 43 44 45 46 47 48 49 50

000
NZUS93 KARX 231210
HRRWXR

CURRENT HOURLY OBSERVATIONS ACROSS
MUCH OF THE UPPER MISSISSIPPI VALLEY
NATIONAL WEATHER SERVICE LA CROSSE WI
700 AM CDT TUE MAY 23 2017


...SOUTHEAST MINNESOTA...


CITY           SKY/WX    TMP DP  RH WIND       PRES   REMARKS
ROCHESTER      CLOUDY    49  48  97 NW7       29.80S
ROCHESTER/MAYO CLOUDY    50  50 100 NW5       29.80S
WINONA         CLOUDY    52  50  93 N5        29.78S
AUSTIN         CLOUDY    48  46  93 NW5       29.80S
ALBERT LEA     CLOUDY    50  46  87 NW5       29.81S
DODGE CENTER   CLOUDY    48  46  93 CALM      29.80S
PRESTON        CLOUDY    48  46  90 NW7       29.79S
OWATONNA       CLOUDY    50  46  87 NW7       29.81S
FARIBAULT      RAIN      48  46  93 W5        29.82R
$$

...ELSEWHERE IN MINNESOTA...


CITY           SKY/WX    TMP DP  RH WIND       PRES   REMARKS
MINNEAPOLIS    PTSUNNY   51  44  77 NW5       29.81R
INTNL FALLS    LGT RAIN  46  43  89 NE10G20   29.91R VSB 1
DULUTH         CLOUDY    46  43  89 NE5       29.83R
RED WING       CLOUDY    52  46  82 CALM      29.79S
REDWOOD FALLS  LGT RAIN  48  45  89 NW6       29.85R FOG
MANKATO        LGT RAIN  47  46  97 NW7       29.83R
WORTHINGTON    CLOUDY    46  44  93 NW10      29.87R
FAIRMONT       CLOUDY    48  45  89 NW10      29.84S
$$

...SOUTHWEST WISCONSIN...


CITY           SKY/WX    TMP DP  RH WIND       PRES   REMARKS
LA CROSSE      CLOUDY    55  52  89 CALM      29.77R
PRAIRIE DU CHI CLOUDY    52  51  97 CALM      29.77R
BOSCOBEL       CLOUDY    54  52  93 CALM      29.77R FOG
LONE ROCK      CLOUDY    54  53  97 CALM      29.77R FOG
PLATTEVILLE    CLOUDY    54  54 100 SW13      29.78S
FORT MC COY    FOG       49  49 100 CALM      29.78S VSB 3/4
CAMP DOUGLAS   CLOUDY    48  48 100 CALM      29.77S FOG
MAUSTON-NEW LI CLOUDY    50  50 100 CALM      29.76S FOG
VIROQUA        FAIR      51  51 100 MISG      29.76S
WIS DELLS      CLOUDY    53  52  96 CALM      29.77S
$$

...ELSEWHERE IN WISCONSIN...


CITY           SKY/WX    TMP DP  RH WIND       PRES   REMARKS
MILWAUKEE      PTSUNNY   60  55  83 SW8       29.79R
MADISON        CLOUDY    56  55  97 SW3       29.76S
GREEN BAY      CLOUDY    54  46  74 E9        29.79S
EAU CLAIRE     CLOUDY    49  47  93 NE3       29.80R
BLACK RVR FLS  CLOUDY    51  51 100 N3        29.78S
MEDFORD        LGT RAIN  46  44  92 CALM      29.81R
WAUSAU         CLOUDY    48  46  93 NE6       29.79R
WIS RAPIDS     CLOUDY    50  47  89 E5        29.79R
MARSHFIELD     CLOUDY    49  46  90 NE8       29.78S
RICE LAKE      PTSUNNY   48  46  95 N7        29.83S
$$

...NORTHEAST IOWA...


CITY           SKY/WX    TMP DP  RH WIND       PRES   REMARKS
WATERLOO       CLOUDY    51  47  86 NW9       29.80R
DUBUQUE        CLOUDY    53  52  96 W10       29.78R FOG
DECORAH        CLOUDY    50  50 100 CALM      29.77R
MASON CITY     CLOUDY    50  47  89 NW10      29.83R
CHARLES CITY   LGT RAIN  50  50 100 W8        29.81R
OELWEIN        PTSUNNY   50  50 100 NW8       29.79F FOG
$$

...ELSEWHERE IN IOWA...


CITY           SKY/WX    TMP DP  RH WIND       PRES   REMARKS
DES MOINES     CLOUDY    52  49  89 NW7       29.85R
IOWA CITY      PTSUNNY   53  50  89 CALM      29.81S
FORT DODGE     CLOUDY    50  46  87 W5        29.85S
MARSHALLTOWN   CLOUDY    51  50  96 NW6       29.82S
CEDAR RAPIDS   CLOUDY    50  50 100 W6        29.79R FOG
$$

...NORTHERN ILLINOIS...


CITY           SKY/WX    TMP DP  RH WIND       PRES   REMARKS
CHICAGO-OHARE  CLOUDY    59  52  77 SW10      29.81R
CHICAGO-MIDWAY CLOUDY    60  54  80 SW9       29.82R
MOLINE           N/A     56  53  90 SW5       29.79F
ROCKFORD       CLOUDY    56  52  86 SW7       29.81R
PEORIA         LGT RAIN  56  55  97 SW3       29.83F
$$

NOTE: "FAIR" INDICATES FEW OR NO CLOUDS BELOW 12,000 FEET WITH NO
SIGNIFICANT WEATHER AND/OR OBSTRUCTIONS TO VISIBILITY. WIND
SPEEDS ARE IN MILES-PER-HOUR.




USA.gov is the U.S. government's official web portal to all federal, state and local government web resources and services.